GEFSCGP_con_probscp_222.txt.gz
Probability
0 0 0 0 0 0 0 0 0 0 0 0 0 2 4 3 2 4 9 17 25 30 32 34 34 34 36 41 44 43 38 32 25 20 17 16 16 17 19 22 23 21 15 12
0 0 0 0 0 0 0 0 0 0 0 0 1 4 5 3 2 4 8 14 22 30 36 41 41 40 41 44 48 47 43 37 30 24 21 20 20 19 19 21 23 22 17 14
0 0 0 0 0 0 0 0 0 0 0 0 1 4 5 3 2 4 6 11 19 28 37 45 48 46 44 47 51 51 50 45 38 32 28 26 26 23 21 22 25 25 22 19
0 0 0 0 0 0 0 0 0 0 0 0 0 2 4 3 2 3 6 10 17 25 33 41 48 49 46 47 51 54 55 53 47 38 33 31 31 26 22 23 27 29 27 24
0 0 0 0 0 0 0 0 0 0 0 0 0 1 4 5 5 4 7 11 14 20 27 35 46 50 47 46 50 55 58 58 53 44 38 35 33 28 24 25 28 30 29 26
0 0 0 0 0 0 0 0 0 0 0 0 0 1 5 7 7 5 6 9 11 14 20 30 41 48 46 44 48 55 61 61 57 49 44 41 38 33 29 29 31 31 28 26
0 0 0 0 0 0 0 0 0 0 0 0 0 1 5 7 6 5 6 9 11 12 19 27 37 43 44 45 51 59 64 64 60 55 49 47 44 38 34 33 33 30 26 24
0 0 0 0 0 0 0 0 0 0 0 0 0 2 4 6 6 4 6 9 11 15 23 30 35 39 43 48 54 60 65 66 62 57 53 50 47 41 35 33 31 28 24 22
0 0 0 0 0 0 0 0 0 0 0 0 1 3 4 4 5 5 7 10 13 18 27 33 36 39 45 51 54 57 62 64 61 56 52 51 49 43 37 35 31 25 21 19
0 0 0 0 0 0 0 0 0 0 0 0 1 3 3 3 6 8 10 14 17 20 27 33 36 41 48 53 53 52 56 58 57 54 50 47 45 42 39 37 29 22 20 21
0 0 0 0 0 0 0 0 0 0 0 0 1 2 2 3 6 11 14 18 21 24 28 33 37 41 46 51 52 51 53 54 53 51 47 43 41 39 38 34 26 21 22 24
0 0 0 0 0 0 0 0 0 0 0 0 1 2 2 3 8 14 19 23 27 29 32 38 44 46 47 51 53 53 53 52 51 48 45 42 39 36 33 30 26 25 24 25
0 0 0 0 0 0 0 0 0 0 0 0 1 3 3 4 12 21 27 30 32 34 39 47 54 55 54 55 57 55 51 49 48 46 43 40 37 34 30 28 27 28 28 28
0 0 0 0 0 0 0 0 0 0 0 0 2 4 6 10 19 28 33 34 35 39 47 55 61 63 61 62 61 56 50 46 45 43 41 38 36 32 29 28 28 29 31 33
0 0 0 0 0 0 0 0 0 0 0 1 3 5 10 17 25 31 35 36 38 44 54 61 66 67 65 64 62 57 50 46 43 42 39 38 35 31 30 30 31 32 34 35
1 0 0 0 0 0 0 0 0 0 0 1 4 7 14 22 28 33 36 37 40 45 55 64 70 70 66 63 61 58 52 46 42 39 37 36 35 33 32 32 33 34 33 32
6 5 3 1 0 0 0 0 0 0 1 3 5 10 16 23 29 34 36 37 40 45 55 65 71 70 65 62 61 59 53 45 39 36 35 35 35 35 35 34 34 33 30 28
11 12 7 2 1 0 0 0 0 1 3 6 8 12 17 23 29 35 37 39 41 47 54 63 69 68 63 62 60 58 51 43 37 35 35 35 35 37 37 35 34 32 28 27
10 11 7 3 2 1 0 0 1 3 6 9 13 16 19 24 30 36 42 46 49 52 56 61 65 64 62 61 58 52 46 40 35 34 34 34 34 34 34 33 31 29 27 27
5 7 5 3 3 1 0 0 1 4 11 16 19 24 28 31 37 46 53 57 60 61 61 63 63 62 61 59 55 49 43 36 32 31 31 31 30 28 28 28 27 25 24 23
2 3 2 1 2 1 2 1 5 16 27 29 29 34 40 45 52 59 64 66 68 69 67 65 64 63 62 58 54 49 43 36 31 29 30 29 26 24 24 24 23 21 19 18
1 1 1 2 6 11 16 18 25 41 50 46 41 44 51 57 63 68 71 72 71 71 68 67 66 64 61 57 53 48 42 37 33 31 30 27 23 22 22 21 19 17 15 13
3 4 7 12 21 29 37 44 51 57 60 55 50 51 54 58 64 69 70 70 69 67 66 65 64 62 60 56 50 45 40 38 35 32 28 23 21 19 18 16 14 13 11 9
11 13 19 28 37 42 46 53 58 59 57 54 51 51 51 55 63 67 65 63 62 61 61 62 61 59 57 53 47 42 38 36 34 29 24 21 18 14 12 10 8 7 6 5
21 23 29 39 48 48 46 46 52 55 54 51 48 47 50 57 64 65 61 58 56 54 53 56 56 55 53 48 43 38 34 32 29 25 21 18 14 9 6 4 3 2 2 2
27 30 33 42 53 54 48 43 48 52 52 50 47 45 50 59 65 65 61 58 54 49 48 51 53 52 49 45 40 34 31 29 26 23 19 15 11 7 4 3 1 0 0 0

GEFSCGP_con_probscp_228.txt.gz
Probability
0 0 0 0 0 0 0 0 0 0 0 0 1 1 2 5 9 9 9 14 16 13 9 11 16 20 21 18 15 15 15 12 10 9 8 8 7 6 7 7 5 4 4 4
0 0 0 0 0 0 0 0 0 0 0 1 2 3 3 6 9 10 9 11 14 14 13 15 20 27 26 20 17 17 16 15 14 13 12 10 8 7 7 7 5 3 3 4
0 0 0 0 0 0 0 0 0 0 0 1 3 3 4 6 8 9 9 9 11 15 17 20 25 32 32 27 23 23 22 20 19 19 16 14 11 9 8 7 5 2 3 3
0 0 0 0 0 0 0 0 0 0 0 0 1 2 3 4 6 8 10 10 11 14 17 21 25 30 33 32 30 30 29 26 25 23 20 17 14 11 9 8 5 3 2 3
0 0 0 0 0 0 0 0 0 0 0 0 0 1 2 3 5 8 11 12 13 13 15 19 22 25 28 31 33 36 36 33 31 28 24 20 17 13 10 9 7 4 2 2
0 0 0 0 0 0 0 0 0 0 0 0 0 0 1 2 6 11 13 13 13 14 15 16 18 21 27 32 37 40 40 37 35 32 28 24 20 17 13 11 7 4 2 1
0 0 0 0 0 0 0 0 0 0 0 0 0 0 0 2 7 13 14 12 13 17 17 15 18 24 31 38 42 42 41 38 35 33 30 26 22 19 16 12 7 4 2 1
0 0 0 0 0 0 0 0 0 0 0 0 0 0 0 3 9 14 13 12 17 22 20 18 21 29 35 39 42 41 39 37 36 34 31 27 23 20 16 12 8 4 1 1
0 0 0 0 0 0 0 0 0 0 0 0 0 0 1 3 9 12 11 13 21 25 23 22 25 30 33 34 37 39 37 37 38 37 34 30 24 20 16 12 8 4 2 2
0 0 0 0 0 0 0 0 0 0 0 0 0 0 1 3 7 9 11 15 22 26 25 24 25 29 32 32 35 38 38 38 40 39 36 31 25 21 16 12 9 6 5 5
0 0 0 0 0 0 0 0 0 0 0 0 0 0 1 4 7 10 13 20 26 28 25 23 25 28 32 34 37 40 40 40 39 37 34 29 24 19 15 11 9 8 7 7
0 0 0 0 0 0 0 0 0 0 0 0 0 1 3 8 12 16 20 27 32 31 26 24 26 29 32 35 39 42 43 41 37 33 29 25 21 18 15 12 10 9 8 7
0 0 0 0 0 0 0 0 0 0 0 0 0 1 5 12 17 22 27 32 35 33 31 31 31 32 34 37 41 42 42 39 33 28 24 21 19 19 17 14 11 10 9 8
0 0 0 0 0 0 0 0 0 0 0 0 0 1 5 13 21 27 31 35 38 38 37 39 38 36 38 40 42 41 40 36 30 25 22 20 20 20 20 17 14 12 11 9
0 0 0 0 0 0 0 0 0 0 0 0 0 1 3 12 23 30 33 37 41 43 42 43 42 41 41 43 43 42 41 36 28 24 22 21 21 21 21 19 17 14 12 9
0 0 0 0 0 0 0 0 0 0 0 0 1 1 4 14 26 32 34 37 41 45 46 46 45 43 42 42 43 44 43 37 29 24 24 24 24 23 22 20 17 14 10 7
0 0 0 0 0 0 0 0 0 0 0 1 2 5 10 19 30 36 38 37 40 44 47 48 48 46 44 42 41 41 40 36 31 28 28 28 27 26 24 22 18 13 8 5
0 0 0 0 0 0 0 1 2 2 1 2 5 11 18 26 33 39 44 44 44 46 47 48 47 47 46 43 39 36 35 33 31 31 30 28 27 26 24 22 19 14 9 5
0 0 0 0 0 0 1 2 4 5 5 6 11 18 25 32 37 42 47 51 51 50 49 48 48 47 46 42 38 34 31 30 29 29 29 26 24 23 21 20 17 14 9 5
0 0 0 0 0 0 2 4 6 7 9 13 17 23 30 37 40 43 49 54 56 55 54 54 53 50 46 41 37 33 31 29 27 27 27 24 21 20 19 17 14 11 8 6
0 0 0 0 0 0 4 8 9 9 13 19 24 28 35 41 44 48 53 57 59 61 60 60 58 54 47 41 37 33 30 27 24 25 25 23 19 17 15 13 11 10 8 7
0 0 0 0 0 2 8 14 15 15 21 29 33 36 40 47 52 54 57 60 61 62 61 60 58 54 45 39 35 32 28 23 21 21 22 20 15 11 8 7 7 6 7 7
2 2 3 4 5 8 14 18 21 25 33 39 42 42 45 52 56 56 57 59 59 59 58 57 55 50 41 35 32 29 24 20 19 19 18 15 9 5 3 3 3 2 3 4
7 7 8 11 15 20 21 22 26 32 40 45 45 45 47 52 56 56 55 55 55 56 56 55 52 44 35 29 26 23 20 18 18 17 14 10 5 2 0 1 1 0 0 1
10 12 14 17 22 26 26 25 28 34 40 44 46 46 47 50 53 53 52 51 52 53 52 50 46 39 32 26 22 18 17 17 17 16 11 7 4 2 0 0 0 0 0 0
11 14 17 20 23 26 25 24 29 34 37 41 45 47 47 48 49 49 50 50 50 50 49 46 42 37 32 27 21 16 16 16 16 15 11 6 4 2 1 0 0 0 0 0

GEFSCGP_con_probscp_234.txt.gz
Probability
0 0 0 0 0 0 0 0 0 0 0 0 0 0 0 0 0 0 0 0 1 2 3 4 4 3 2 2 2 2 1 0 0 0 0 0 1 2 3 4 5 5 3 3
0 0 0 0 0 0 0 0 0 0 0 0 0 0 0 0 0 0 0 0 1 2 3 3 3 2 2 2 2 2 1 0 0 0 0 1 1 2 3 3 4 4 2 1
0 0 0 0 0 0 0 0 0 0 0 0 0 0 1 0 0 0 0 1 2 3 3 2 2 2 3 3 3 3 1 0 0 0 1 3 3 3 4 3 3 3 2 1
0 0 0 0 0 0 0 0 0 0 0 0 0 0 1 1 0 0 1 2 3 3 2 1 1 3 5 4 4 3 3 2 1 0 1 4 5 5 5 4 3 3 2 1
0 0 0 0 0 0 0 0 0 0 0 0 0 0 0 1 0 1 3 4 3 2 1 1 2 5 6 4 4 4 4 4 3 3 3 5 7 7 5 4 4 3 1 0
0 0 0 0 0 0 0 0 0 0 0 0 0 0 0 0 0 2 4 5 3 2 2 2 3 5 5 4 4 6 6 6 6 6 6 8 9 9 7 6 5 4 1 0
0 0 0 0 0 0 0 0 0 0 0 0 0 0 0 0 0 2 5 5 4 3 4 5 4 4 5 4 5 7 8 7 7 7 8 10 11 11 9 7 5 3 1 0
0 0 0 0 0 0 0 0 0 0 0 0 0 0 0 0 0 2 4 4 3 5 7 7 5 3 4 4 6 8 9 9 9 9 11 13 14 13 10 7 4 3 1 0
0 0 0 0 0 0 0 0 0 0 0 0 0 0 0 1 1 1 3 3 3 6 8 7 4 2 3 5 8 10 11 12 12 13 14 15 15 14 11 6 4 2 1 0
0 0 0 0 0 0 0 0 0 0 0 0 0 0 1 2 2 1 3 4 4 7 9 8 3 2 4 7 10 13 14 15 15 15 16 16 16 14 11 8 4 2 0 0
0 0 0 0 0 0 0 0 0 0 0 0 0 1 2 3 3 2 4 6 7 7 8 7 4 3 6 11 14 16 16 17 16 15 16 17 15 13 11 9 6 3 1 0
0 0 0 0 0 0 0 0 0 0 0 0 0 1 2 3 3 3 5 7 8 8 7 6 6 7 10 13 16 19 19 18 15 15 16 16 14 12 10 9 8 5 1 0
0 0 0 0 0 0 0 0 0 0 0 0 0 1 2 3 3 4 6 8 8 8 8 9 10 11 12 14 18 22 22 20 16 16 16 15 12 11 10 9 7 4 1 0
0 0 0 0 0 0 0 0 0 0 0 0 0 1 1 1 2 5 8 9 10 10 12 16 17 15 13 16 20 24 25 24 20 18 15 12 10 10 9 8 6 3 1 1
0 0 0 0 0 0 0 0 0 0 0 0 0 0 0 0 1 5 11 15 16 16 19 22 23 21 19 19 22 24 26 26 25 22 17 12 9 9 9 8 6 4 2 2
0 0 0 0 0 0 0 0 0 0 0 0 0 0 0 0 2 6 13 20 22 22 25 28 29 28 25 23 24 25 27 29 29 25 20 15 11 10 10 10 8 6 5 4
0 0 0 0 0 0 0 0 0 0 0 0 0 0 1 1 4 9 15 21 24 26 30 33 35 31 26 24 25 27 29 31 31 28 24 21 17 15 14 13 11 10 7 5
0 0 0 0 0 0 0 0 0 0 0 0 0 1 3 6 10 15 18 21 24 28 31 34 36 32 26 25 26 28 30 31 31 30 27 25 22 20 18 15 13 11 8 5
0 0 0 0 0 0 0 0 0 0 0 0 1 4 8 13 17 18 19 21 25 28 31 34 36 34 30 27 27 29 30 29 29 28 26 24 23 20 17 14 12 10 7 5
0 0 0 0 0 0 0 0 0 0 0 1 3 7 14 18 16 16 20 25 27 30 32 34 36 35 32 30 29 29 29 27 26 24 22 20 19 17 14 12 11 9 6 5
0 0 0 0 0 0 1 2 1 0 0 2 6 10 17 18 14 17 27 33 34 35 35 35 36 35 33 32 30 28 26 24 22 21 19 17 15 13 11 10 9 8 6 6
0 0 0 0 0 0 2 3 2 1 2 5 10 15 20 21 21 27 35 40 41 42 40 38 38 37 35 33 31 28 24 20 19 18 16 13 12 10 9 7 7 6 5 5
0 0 0 1 1 1 2 4 4 4 6 9 14 20 23 26 29 35 40 41 43 45 44 42 41 40 36 32 29 25 22 19 18 16 13 10 8 7 5 4 4 3 3 3
0 0 1 3 4 4 4 6 8 9 10 12 15 19 23 29 33 36 40 41 43 45 44 42 42 41 36 29 25 22 20 19 17 14 10 7 4 3 2 1 1 1 1 1
0 0 2 3 3 4 5 7 11 14 15 15 15 16 21 29 34 36 39 41 43 44 42 41 42 40 35 28 22 19 17 17 16 12 8 4 1 0 0 0 0 0 0 0
0 0 1 1 1 2 3 6 12 18 20 17 15 16 21 28 35 37 39 41 42 43 42 42 41 39 34 26 20 17 16 16 15 12 7 2 0 0 0 0 0 0 0 0

GEFSCGP_con_probscp_240.txt.gz
Probability
0 0 0 0 0 0 0 0 0 0 0 0 0 0 0 0 0 0 0 0 0 0 0 1 1 1 1 4 9 12 12 14 16 12 9 8 8 9 8 8 8 7 6 8
0 0 0 0 0 0 0 0 0 0 0 0 0 0 0 0 0 0 0 0 0 0 1 2 2 1 2 5 9 11 13 16 15 12 9 8 8 9 8 8 8 8 8 8
0 0 0 0 0 0 0 0 0 0 0 0 0 0 0 0 0 0 0 0 0 1 2 3 2 1 3 5 8 11 15 18 18 14 10 9 9 9 9 9 9 8 8 8
0 0 0 0 0 0 0 0 0 0 0 0 0 0 0 0 0 0 0 0 0 2 3 3 2 2 3 4 7 11 15 21 23 19 14 12 10 9 9 11 10 8 8 8
0 0 0 0 0 0 0 0 0 0 0 0 0 0 0 1 0 0 0 0 1 2 3 3 3 3 3 4 5 10 17 23 25 23 18 15 12 9 10 12 11 10 9 10
0 0 0 0 0 0 0 0 0 0 0 0 0 0 0 0 0 0 1 1 3 3 3 4 4 4 5 4 4 9 18 25 27 24 21 18 16 13 12 13 13 12 12 12
0 0 0 0 0 0 0 0 0 0 0 0 0 0 0 0 0 1 2 3 4 4 4 5 6 6 7 6 5 10 19 26 27 26 24 23 21 18 15 14 13 13 12 11
0 0 0 0 0 0 0 0 0 0 0 0 0 0 0 0 0 1 3 4 4 3 5 7 7 7 8 8 8 12 20 24 26 27 26 25 22 19 16 15 14 13 12 10
0 0 0 0 0 0 0 0 0 0 0 0 0 0 0 0 1 2 4 4 3 3 7 10 10 8 8 10 10 14 20 24 25 24 25 24 21 18 16 16 16 15 13 11
0 0 0 0 0 0 0 0 0 0 0 0 0 0 0 0 1 3 5 5 4 4 8 13 13 10 8 9 11 14 20 26 26 23 22 22 20 18 17 17 17 16 14 11
0 0 0 0 0 0 0 0 0 0 0 0 0 0 0 0 1 4 6 7 5 5 8 12 13 11 10 11 13 16 22 27 29 26 22 20 19 18 18 18 17 16 13 11
0 0 0 0 0 0 0 0 0 0 0 0 0 0 0 1 2 7 10 11 9 9 10 12 13 13 14 16 19 22 26 29 30 29 26 22 20 20 20 19 17 14 11 11
0 0 0 0 0 0 0 0 0 0 0 0 0 0 1 2 5 9 14 17 16 16 16 16 17 18 20 23 25 28 31 32 31 31 30 27 24 22 21 19 16 13 11 11
0 0 0 0 0 0 0 0 0 0 0 0 0 0 1 3 7 11 16 19 19 19 22 24 26 28 28 30 31 33 34 34 34 34 34 31 26 22 20 18 15 14 13 12
0 0 0 0 0 0 0 0 0 0 0 0 0 0 2 5 10 15 20 20 18 19 23 29 34 37 38 39 39 39 38 36 37 38 37 33 29 25 22 20 18 16 14 13
0 0 0 0 0 0 0 0 0 0 0 0 0 1 3 7 11 17 23 24 21 21 24 32 39 44 47 48 46 45 42 40 40 40 39 35 32 29 27 25 22 18 16 15
0 0 0 0 0 0 0 0 0 0 0 0 1 2 5 7 10 15 22 26 27 26 29 35 42 47 50 51 49 47 45 43 40 39 37 35 33 30 28 27 23 20 19 19
1 0 0 0 0 0 0 0 0 0 0 2 3 4 7 8 10 13 19 26 31 32 34 38 43 47 50 52 52 49 46 43 39 35 34 34 32 29 27 25 23 21 21 21
1 1 0 0 0 0 0 0 0 0 1 4 7 8 10 10 10 13 21 30 36 38 39 42 44 48 52 55 57 55 49 43 38 34 33 33 32 30 28 27 24 21 20 20
1 1 0 0 0 0 0 0 0 0 1 5 8 12 14 14 15 20 29 38 45 46 45 46 48 50 54 58 61 59 53 47 41 37 35 33 31 30 29 29 26 23 20 19
0 0 0 0 0 0 1 1 1 1 3 6 9 14 18 20 24 32 40 47 53 53 51 52 53 54 56 58 61 60 57 52 46 41 38 36 32 28 27 27 26 23 20 18
0 0 0 0 1 2 4 5 6 7 10 12 15 17 20 24 30 40 48 54 56 56 54 54 55 56 57 57 59 61 59 54 49 45 42 40 35 28 26 26 25 23 20 16
0 0 1 2 3 5 8 10 13 15 19 23 24 24 24 27 33 41 49 55 54 52 52 54 54 54 54 55 58 60 58 54 50 46 44 42 36 30 27 24 23 21 16 13
1 1 2 4 6 9 12 14 16 20 25 29 30 30 30 31 35 41 47 49 47 47 49 52 53 51 50 52 54 55 54 51 48 45 44 40 34 30 27 23 20 16 13 11
4 4 5 7 11 15 18 19 19 22 29 33 34 33 33 33 35 40 43 43 41 42 45 50 51 49 48 49 49 49 48 48 46 44 42 37 32 29 25 21 16 10 8 7
8 8 7 9 16 20 22 23 21 24 31 36 36 35 33 32 33 37 40 39 38 39 43 48 48 47 47 47 47 46 45 46 46 43 39 34 32 29 23 17 11 5 3 3